[[{"header":{"parameterUnit":"m.s-1","parameterCategory":1,"la1":30.2991,"la2":30.254,"lo1":-89.0895,"lo2":-89.0444,"dy":0.0017,"dx":0.0017,"nx":28,"ny":28,"refTime":"2023-07-20T09:00:00:Z","depth":0,"parameterNumber":2,"parameterNumberName":"U-component_of_WINDS"},"data":[0,0,0,0,0,0,0,0,0,0,0,0,0,0,0,0,0,0,0,0,0,0,0,0,0,0,0,0,0,0,0,0,0,0,0,0,0,0,0,0,0,0,0,0,0,0,0,0,0,0,0,0,0,0,0,0,0,0,0.9411,0.9411,0,0.9472,0.9473,0.9474,0.9481,0.948,0.948,0.9479,0.9546,0.9548,0.9551,0,0,0,0,0,0,0,0,0,0,0,0,0,0.9302,0.9304,0.9411,0.9412,0.9412,0.9472,0.9473,0.9474,0.9481,0.948,0.948,0.9479,0.9545,0.9548,0.9551,0,0,0,0,0,0,0,0,0,0,0,0,0,0.9355,0.9305,0.9411,0.9423,0.9425,0.9472,0.9473,0.9474,0.9481,0.948,0.9479,0.9479,0.9544,0.9548,0.9551,0.9592,0,0,0.9562,0.9563,0,0,0,0,0,0,0,0,0.9352,0.9359,0.942,0.9422,0.9424,0.9468,0.9459,0.9514,0.9481,0.946,0.9479,0.9478,0.9521,0.9526,0.954,0.9595,0.9597,0.9562,0.9564,0.9566,0.9567,0,0,0,0,0,0,0,0.9348,0.9357,0.9435,0.9421,0.9424,0.9426,0.9433,0.947,0.9495,0.9462,0.9462,0.9469,0.9522,0.9537,0.9542,0.9598,0.9562,0.9565,0.9567,0.9569,0.9689,0.969,0,0,0,0,0,0,0.9342,0.9353,0.9433,0.9437,0.9385,0.9429,0.9436,0.9455,0.9495,0.95,0.947,0.9469,0.9531,0.9538,0.9544,0.9594,0.9566,0.9569,0.9571,0.9688,0.9689,0.969,0,0,0,0,0,0,0.934,0.9349,0.9431,0.9395,0.9406,0.9432,0.9453,0.9457,0.9471,0.9501,0.9506,0.948,0.9531,0.9539,0.9579,0.9596,0.9571,0.9574,0.9686,0.9688,0.9689,0.9693,0,0,0,0,0,0,0.9336,0.9348,0.9363,0.9396,0.9408,0.9464,0.9454,0.9458,0.9477,0.9477,0.9512,0.9517,0.9531,0.9574,0.9583,0.96,0.9577,0.9685,0.9687,0.9689,0.9691,0.9694,0.9697,0,0,0,0,0,0.9333,0.9363,0.9364,0.9374,0.9427,0.9465,0.9472,0.9486,0.9478,0.9494,0.9513,0.9516,0.9592,0.9578,0.9588,0.9607,0.9684,0.9686,0.9689,0.969,0.9694,0.9697,0,0,0,0,0,0,0.9333,0.9367,0.9369,0.941,0.9434,0.9466,0.9486,0.949,0.9518,0.9517,0.9534,0.9542,0.9581,0.9598,0.9581,0.9648,0.9638,0.9642,0.9635,0.9639,0.9642,0.9637,0.958,0,0,0,0,0,0.9338,0.9365,0.9394,0.9427,0.9439,0.9461,0.9478,0.9486,0.9513,0.9523,0.9545,0.9572,0.9602,0.9621,0.9651,0.9694,0.9701,0.9712,0.9714,0.9716,0.972,0.9744,0.9749,0.9698,0.9698,0.9698,0,0,0.9348,0.937,0.9386,0.9428,0.9448,0.9476,0.9469,0.95,0.9521,0.9529,0.9567,0.9584,0.9615,0.9656,0.9676,0.9672,0.9736,0.972,0.9721,0.9724,0.9747,0.9752,0.9756,0.97,0.9699,0.9699,0,0,0.9381,0.9401,0.9431,0.945,0.948,0.9493,0.9501,0.9532,0.9543,0.9581,0.9587,0.9613,0.9665,0.9686,0.9704,0.9744,0.9747,0.9753,0.9768,0.979,0.9794,0.9798,0.9812,0.9817,0.9757,0.9757,0.9757,0,0.9391,0.9433,0.9446,0.9476,0.9494,0.95,0.9531,0.9549,0.9588,0.96,0.9595,0.9658,0.968,0.9726,0.9735,0.975,0.9759,0.9749,0.9793,0.9796,0.98,0.9814,0.9819,0.9757,0.9757,0.9757,0.9757,0,0.9443,0.9472,0.9493,0.9528,0.9548,0.9579,0.9596,0.9616,0.9622,0.9637,0.9676,0.9702,0.9736,0.9747,0.9755,0.9795,0.9791,0.9789,0.9779,0.9805,0.9818,0.9824,0.9758,0.9758,0.9757,0.9757,0,0,0.9479,0.952,0.9527,0.9543,0.9575,0.9599,0.9629,0.9661,0.9677,0.9703,0.9729,0.9772,0.977,0.979,0.9799,0.9819,0.9849,0.9815,0.9816,0.982,0.9894,0.9896,0.9901,0.9851,0.9852,0.9853,0.9892,0,0.9516,0.957,0.9582,0.9628,0.9655,0.966,0.9687,0.971,0.9724,0.975,0.9766,0.9796,0.9791,0.9803,0.9823,0.9841,0.9864,0.9839,0.9877,0.9878,0.9869,0.9908,0.991,0.9945,0.9897,0.9898,0.9898,0,0.9567,0.9592,0.9641,0.9669,0.968,0.9704,0.9734,0.9758,0.9784,0.9793,0.9815,0.9822,0.9855,0.9843,0.9888,0.987,0.9886,0.9897,0.9899,0.9904,0.989,0.9914,0.9957,0.9962,0.9907,0.9906,0.9905,0,0.9588,0.9635,0.9669,0.9683,0.9716,0.9733,0.9748,0.9773,0.9791,0.9818,0.983,0.986,0.9877,0.99,0.9916,0.9906,0.9959,0.9949,0.9968,0.9968,0.998,0.9979,1.0026,0.999,0.999,0.999,0.999,0,0.9628,0.9658,0.9679,0.9701,0.9734,0.9747,0.978,0.9795,0.9817,0.9842,0.985,0.9873,0.9892,0.9918,0.993,0.9966,0.9973,0.9982,0.9985,0.9981,0.998,0.9992,0.999,0.9991,0.9991,0.9991,0.999,0,0.9658,0.9673,0.9711,0.974,0.9747,0.9771,0.9795,0.9816,0.983,0.9862,0.987,0.9892,0.9923,0.9941,0.998,0.9988,1.0028,1.003,1.0018,1.002,1.0038,1.0036,1.0094,1.0103,1.0061,1.0062,1.0062,0,0.9682,0.9705,0.9735,0.9751,0.9766,0.9793,0.9811,0.9826,0.9844,0.9875,0.9893,0.9924,0.995,0.9999,1.0019,1.0049,1.0052,1.007,1.0057,1.0052,1.0052,1.005,1.0053,1.0073,1.0073,1.0074,1.0074,0,0.9724,0.973,0.9756,0.9784,0.9805,0.9828,0.9851,0.9864,0.9882,0.9903,0.9934,0.9954,0.9993,1.0024,1.0055,1.0071,1.0076,1.0078,1.0084,1.008,1.0073,1.0077,1.0025,1.0077,1.0076,1.0076,1.0076,1.0076,0.9752,0.9772,0.9796,0.9824,0.9842,0.9863,0.9884,0.99,0.9926,0.9958,0.9965,0.9998,1.0023,1.0065,1.0082,1.0108,1.0105,1.0114,1.0116,1.0118,1.0119,1.0068,1.0114,1.0114,1.0114,1.0114,1.0114,0,0.9794,0.9809,0.9835,0.9866,0.9888,0.9888,0.9913,0.9932,0.996,0.9983,1.0007,1.0043,1.0072,1.0094,1.0125,1.0141,1.0144,1.0149,1.0148,1.0151,1.012,1.0112,1.0146,1.0146,1.0146,1.0146,1.0146,1.0146,0.9818,0.9852,0.9861,0.9904,0.9919,0.995,0.9964,0.9984,1.0002,1.0041,1.0065,1.0078,1.0101,1.0133,1.016,1.0166,1.0176,1.0181,1.0187,1.0157,1.0154,1.0151,1.0143,1.0183,1.0183,1.0216,1.0216,1.0217]},{"header":{"parameterUnit":"m.s-1","parameterCategory":1,"la1":30.2991,"la2":30.254,"lo1":-89.0895,"lo2":-89.0444,"dy":0.0017,"dx":0.0017,"nx":28,"ny":28,"refTime":"2023-07-20T09:00:00:Z","depth":0,"parameterNumber":3,"parameterNumberName":"V-component_of_WINDS"},"data":[0,0,0,0,0,0,0,0,0,0,0,0,0,0,0,0,0,0,0,0,0,0,0,0,0,0,0,0,0,0,0,0,0,0,0,0,0,0,0,0,0,0,0,0,0,0,0,0,0,0,0,0,0,0,0,0,0,0,3.4343,3.4343,0,3.4341,3.4341,3.4341,3.4347,3.4347,3.4347,3.4347,3.4344,3.4343,3.4343,0,0,0,0,0,0,0,0,0,0,0,0,0,3.4348,3.4348,3.4343,3.4343,3.4343,3.4341,3.4341,3.4341,3.4347,3.4347,3.4347,3.4347,3.4344,3.4344,3.4343,0,0,0,0,0,0,0,0,0,0,0,0,0,3.4346,3.4348,3.4343,3.4345,3.4346,3.4341,3.4341,3.4341,3.4347,3.4347,3.4347,3.4347,3.4344,3.4344,3.4343,3.4336,0,0,3.4342,3.4342,0,0,0,0,0,0,0,0,3.4346,3.4346,3.4345,3.4345,3.4345,3.4344,3.4342,3.4339,3.4346,3.4346,3.4347,3.4347,3.4344,3.4343,3.4342,3.4335,3.4335,3.4342,3.4342,3.4342,3.4341,0,0,0,0,0,0,0,3.4346,3.4346,3.4342,3.4345,3.4345,3.4346,3.4346,3.4341,3.4343,3.4346,3.4347,3.4346,3.4344,3.4343,3.4342,3.4335,3.4342,3.4342,3.4341,3.4341,3.432,3.432,0,0,0,0,0,0,3.4347,3.4346,3.4342,3.4342,3.4347,3.4345,3.4345,3.4344,3.4343,3.4344,3.4346,3.4347,3.4343,3.4343,3.4342,3.4332,3.4342,3.4341,3.4341,3.432,3.432,3.4319,0,0,0,0,0,0,3.4347,3.4346,3.4342,3.4344,3.4344,3.4345,3.4344,3.4344,3.4343,3.4343,3.4344,3.4345,3.4343,3.4343,3.4337,3.4332,3.4341,3.4341,3.4321,3.432,3.432,3.4312,0,0,0,0,0,0,3.4347,3.4346,3.4344,3.4344,3.4344,3.4338,3.4344,3.4344,3.4343,3.4343,3.4342,3.4342,3.4344,3.4337,3.4336,3.4332,3.434,3.4321,3.432,3.432,3.4313,3.4312,3.431,0,0,0,0,0,3.4347,3.4342,3.4344,3.4343,3.4341,3.4337,3.4337,3.4339,3.4342,3.434,3.4339,3.4342,3.4333,3.4337,3.4336,3.4331,3.4321,3.4321,3.432,3.4314,3.4312,3.431,0,0,0,0,0,0,3.4341,3.4342,3.4344,3.4339,3.4338,3.4338,3.4335,3.4337,3.4335,3.4336,3.4338,3.4337,3.4331,3.433,3.4335,3.4322,3.4327,3.4326,3.4323,3.4321,3.432,3.432,3.434,0,0,0,0,0,3.4339,3.4337,3.4338,3.4333,3.4333,3.4334,3.4333,3.4334,3.4333,3.4332,3.4332,3.433,3.4326,3.4324,3.4321,3.4313,3.4312,3.4309,3.4308,3.4306,3.4305,3.4299,3.4298,3.4317,3.4317,3.4317,0,0,3.4335,3.4336,3.4334,3.4332,3.4332,3.4328,3.4334,3.433,3.4327,3.4332,3.4326,3.4325,3.4323,3.4316,3.4313,3.4315,3.43,3.4305,3.4305,3.4304,3.4298,3.4297,3.4295,3.4316,3.4317,3.4317,0,0,3.4327,3.4327,3.4323,3.4322,3.4321,3.4321,3.432,3.432,3.432,3.4314,3.4317,3.4313,3.4307,3.4305,3.4303,3.4292,3.4294,3.4291,3.4284,3.4278,3.4276,3.4275,3.427,3.4268,3.429,3.429,3.429,0,3.4322,3.4318,3.432,3.4316,3.4314,3.4318,3.4313,3.4312,3.431,3.4308,3.4311,3.4303,3.4302,3.4293,3.429,3.4289,3.4287,3.4291,3.4277,3.4275,3.4274,3.4269,3.4267,3.4289,3.4289,3.4289,3.4289,0,3.4311,3.4308,3.4304,3.4302,3.43,3.4296,3.4296,3.4294,3.4295,3.4295,3.4288,3.4287,3.4283,3.4281,3.4282,3.4272,3.4273,3.4276,3.4281,3.4272,3.4267,3.4265,3.4288,3.4289,3.4289,3.4289,0,0,3.4299,3.4298,3.4296,3.4295,3.4293,3.429,3.4285,3.4281,3.4278,3.4276,3.4271,3.4265,3.4267,3.4265,3.4266,3.4261,3.425,3.4265,3.4265,3.4261,3.4237,3.4234,3.4232,3.4252,3.4251,3.4251,3.4237,0,3.429,3.4282,3.4283,3.4275,3.4271,3.4274,3.4269,3.4267,3.4266,3.4262,3.4261,3.4256,3.4261,3.4259,3.4254,3.4253,3.4245,3.4254,3.4246,3.4245,3.4245,3.423,3.4227,3.4213,3.4235,3.4235,3.4234,0,3.4278,3.4275,3.4266,3.4264,3.4262,3.4258,3.4254,3.4251,3.4247,3.4247,3.4244,3.4245,3.4238,3.4244,3.4234,3.4239,3.4236,3.4234,3.4234,3.4233,3.4239,3.4227,3.4209,3.4207,3.4232,3.4232,3.4232,0,3.4269,3.4263,3.4257,3.4255,3.4253,3.4249,3.4248,3.4245,3.4242,3.4238,3.4236,3.4231,3.4228,3.4223,3.4223,3.4227,3.4212,3.4218,3.421,3.421,3.4207,3.4207,3.4187,3.4206,3.4206,3.4206,3.4206,0,3.4258,3.4252,3.4252,3.4248,3.4241,3.4242,3.4235,3.4234,3.4231,3.4226,3.4228,3.4223,3.4223,3.4217,3.4216,3.4207,3.4206,3.4204,3.4204,3.4204,3.4204,3.4201,3.4201,3.4205,3.4205,3.4206,3.4206,0,3.4246,3.4247,3.424,3.4237,3.4236,3.4231,3.4229,3.4224,3.4223,3.4216,3.4215,3.4213,3.4206,3.4205,3.4197,3.4197,3.4185,3.4186,3.4186,3.4186,3.4178,3.4179,3.4156,3.4152,3.4174,3.4174,3.4174,0,3.4239,3.4235,3.4232,3.4228,3.4227,3.4222,3.4219,3.4219,3.4215,3.421,3.4206,3.4199,3.4194,3.4183,3.418,3.4173,3.4174,3.4166,3.4173,3.4172,3.4172,3.4172,3.4171,3.4165,3.4164,3.4164,3.4164,0,3.4226,3.4226,3.4221,3.4217,3.4213,3.4209,3.4205,3.4202,3.4202,3.4197,3.419,3.4186,3.4177,3.417,3.4163,3.416,3.4161,3.4162,3.416,3.4159,3.4159,3.4157,3.4182,3.4162,3.4163,3.4163,3.4163,3.4163,3.4215,3.4211,3.4208,3.4202,3.42,3.4196,3.4191,3.4189,3.4184,3.4177,3.4177,3.4169,3.4164,3.4155,3.4151,3.4144,3.4146,3.4143,3.4142,3.4141,3.414,3.416,3.4143,3.4143,3.4143,3.4143,3.4143,0,3.4201,3.4199,3.4194,3.4189,3.4184,3.4186,3.4181,3.4177,3.417,3.4165,3.416,3.4151,3.4143,3.414,3.4132,3.4127,3.4127,3.4124,3.4124,3.4123,3.4139,3.4141,3.4124,3.4124,3.4124,3.4124,3.4124,3.4124,3.4193,3.4185,3.4185,3.4174,3.4172,3.4165,3.4162,3.4157,3.4153,3.4144,3.4137,3.4135,3.413,3.4122,3.4114,3.4113,3.411,3.4107,3.4106,3.4121,3.4122,3.4124,3.4126,3.4106,3.4106,3.409,3.409,3.409]}]]